Gaylord, MI

12:43 AM EST on November 25, 2017 (GMT -0500)
Otsego County

Weather History for KGLR - February, 2012

Change the Weather History Date:

Monday, February 20, 2012

  Actual Average Record
Temperature  
Mean Temperature 20 °F -  
Max Temperature 37 °F 32 °F 56 °F (1983)
Min Temperature 3 °F 13 °F -29 °F (2015)
Degree Days  
Heating Degree Days 45    
Moisture  
Dew Point 14 °F    
Average Humidity 80    
Maximum Humidity 100    
Minimum Humidity 44    
Precipitation  
Precipitation 0.00 in - - ()
Sea Level Pressure  
Sea Level Pressure 30.24 in    
Wind  
Wind Speed 2 mph (South)    
Max Wind Speed 8 mph    
Max Gust Speed -    
Visibility 8 miles    
Events Fog    
Averages and records for this station are not official NWS values.
T = Trace of Precipitation, MM = Missing Value Source: NWS Daily Summary

Daily Weather History Graph

Daily Weather History Graph

Search for Another Location

Airport or City:

Trip Planner

Search our weather history database for the weather conditions in past years. The results will help you decide how hot, cold, wet, or windy it might be!

Date:

Astronomy

Feb. 20, 2012 Rise Set
Actual Time 7:32 AM EST 6:13 PM EST
Civil Twilight 7:02 AM EST 6:43 PM EST
Nautical Twilight 6:28 AM EST 7:17 PM EST
Astronomical Twilight 5:54 AM EST 7:51 PM EST
Moon 6:30 AM EST (2/20) 5:16 PM EST (2/20)
Length of Visible Light 11h 40m
Length of Day
10h 40m
Waning Crescent, 2% of the Moon is Illuminated
Feb 20
Waning Crescent
Feb 21
New
Feb 29
First Quarter
Mar 8
Full
Mar 14
Last Quarter

Hourly Weather History & Observations

Time (EST) Temp. Windchill Dew Point Humidity Pressure Visibility Wind Dir Wind Speed Gust Speed Precip Events Conditions
12:53 AM 12.0 °F - 8.1 °F 84% 30.23 in 10.0 mi Calm Calm - N/A   Clear
1:53 AM 10.0 °F - 7.0 °F 87% 30.24 in 10.0 mi Calm Calm - N/A   Clear
2:53 AM 8.1 °F - 5.0 °F 87% 30.25 in 10.0 mi Calm Calm - N/A   Clear
3:53 AM 9.0 °F - 6.1 °F 88% 30.25 in 9.0 mi Calm Calm - N/A   Clear
4:53 AM 3.9 °F -3.4 °F -0.0 °F 84% 30.26 in 10.0 mi SW 3.5 mph - N/A   Clear
5:53 AM 5.0 °F - 1.0 °F 84% 30.27 in 10.0 mi Calm Calm - N/A   Clear
6:53 AM 5.0 °F - -0.0 °F 80% 30.29 in 10.0 mi Calm Calm - N/A   Clear
7:36 AM 5.0 °F - -0.4 °F 78% 30.22 in 10.0 mi Calm Calm - N/A   Scattered Clouds
7:45 AM 3.2 °F - -0.4 °F 85% 30.22 in 10.0 mi Calm Calm - N/A   Mostly Cloudy
7:53 AM 5.0 °F - 1.0 °F 84% 30.31 in 9.0 mi Calm Calm - N/A   Mostly Cloudy
8:53 AM 12.9 °F - 10.9 °F 92% 30.33 in 6.0 mi Calm Calm - N/A   Overcast
9:03 AM 12.2 °F - 12.2 °F 100% 30.26 in 1.8 mi Calm Calm - N/A   Overcast
9:07 AM 14.0 °F - 14.0 °F 100% 30.26 in 0.8 mi Calm Calm - N/A   Mist
9:19 AM 15.8 °F 10.2 °F 15.8 °F 100% 30.26 in 0.2 mi SSW 3.5 mph - N/A Fog Light Freezing Fog
9:39 AM 17.6 °F 12.3 °F 17.6 °F 100% 30.26 in 0.2 mi SSW 3.5 mph - N/A Fog Light Freezing Fog
9:53 AM 19.0 °F 13.9 °F 19.0 °F 100% 30.33 in 0.2 mi South 3.5 mph - N/A Fog Light Freezing Fog
10:07 AM 21.2 °F - 21.2 °F 100% 30.26 in 1.2 mi Calm Calm - N/A   Overcast
10:16 AM 21.2 °F - 21.2 °F 100% 30.26 in 3.0 mi Calm Calm - N/A   Overcast
10:53 AM 27.0 °F 21.6 °F 26.1 °F 96% 30.32 in 8.0 mi SSW 4.6 mph - N/A   Mostly Cloudy
11:04 AM 28.4 °F 23.3 °F 26.6 °F 93% 30.26 in 9.0 mi SSW 4.6 mph - N/A   Scattered Clouds
11:53 AM 30.9 °F 24.3 °F 27.0 °F 85% 30.32 in 10.0 mi WSW 6.9 mph - N/A   Partly Cloudy
12:53 PM 34.0 °F 29.8 °F 23.0 °F 64% 30.29 in 10.0 mi SW 4.6 mph - N/A   Clear
1:53 PM 35.1 °F 29.3 °F 23.0 °F 61% 30.27 in 10.0 mi SSE 6.9 mph - N/A   Clear
2:53 PM 36.0 °F 31.1 °F 21.0 °F 55% 30.27 in 10.0 mi SSE 5.8 mph - N/A   Clear
3:53 PM 37.0 °F 31.6 °F 19.9 °F 50% 30.24 in 10.0 mi SSE 6.9 mph - N/A   Clear
4:53 PM 37.0 °F 33.3 °F 17.1 °F 44% 30.23 in 10.0 mi South 4.6 mph - N/A   Clear
5:53 PM 34.0 °F 28.8 °F 19.0 °F 54% 30.21 in 10.0 mi South 5.8 mph - N/A   Clear
6:53 PM 33.1 °F 30.0 °F 17.1 °F 52% 30.20 in 10.0 mi South 3.5 mph - N/A   Clear
7:53 PM 30.9 °F 23.5 °F 18.0 °F 59% 30.20 in 10.0 mi South 8.1 mph - N/A   Clear
8:53 PM 28.9 °F 21.1 °F 19.0 °F 67% 30.18 in 10.0 mi South 8.1 mph - N/A   Clear
9:53 PM 27.0 °F 19.5 °F 18.0 °F 69% 30.15 in 10.0 mi South 6.9 mph - N/A   Clear
10:53 PM 26.1 °F 18.4 °F 19.0 °F 75% 30.10 in 10.0 mi SSE 6.9 mph - N/A   Clear
11:53 PM 26.1 °F 17.6 °F 19.9 °F 78% 30.06 in 10.0 mi South 8.1 mph - N/A   Clear